Probability
0 0 0 0 0 0 0 0 0 0 0 0 0 0 0 0 0 0 0 0 3 6 13 19 19 19 23 23 23 26 26 35 39 39 39 45 45 45 45 48 52 52 48 58 48 45 42 42 35
0 0 0 0 0 0 0 0 0 0 0 0 0 0 0 0 0 0 0 0 3 10 13 13 19 19 19 19 23 23 23 26 32 35 39 39 42 39 35 35 35 42 52 48 39 39 35 35 35
0 0 0 0 0 0 0 0 0 0 0 0 0 0 0 0 0 0 0 3 3 6 10 13 16 16 19 19 19 19 19 19 23 29 29 35 35 35 39 32 35 35 35 45 42 39 35 32 35
0 0 0 0 0 0 0 0 0 0 0 0 0 0 0 0 0 0 0 3 3 6 10 13 13 13 16 16 16 19 19 19 19 19 29 29 29 29 35 29 29 35 32 32 29 35 29 29 29
0 0 0 0 0 0 0 0 0 0 0 0 0 0 0 0 0 0 0 3 0 6 10 13 13 13 13 13 16 16 16 16 16 16 16 19 26 29 26 23 29 26 29 32 29 26 23 23 19
0 0 0 0 0 0 0 0 0 0 0 0 0 0 0 0 0 0 0 3 3 6 6 13 13 13 13 13 13 10 13 13 13 13 13 16 19 19 26 23 23 19 26 29 26 26 19 23 19
0 0 0 0 0 0 0 0 0 0 0 0 0 0 0 0 0 0 0 3 3 3 6 6 6 10 10 6 6 6 6 10 10 10 10 10 10 16 13 19 16 19 23 19 19 19 19 19 16
0 0 0 0 0 0 0 0 0 0 0 0 0 0 0 0 0 0 0 0 0 3 6 6 6 3 3 0 3 3 3 3 6 10 10 10 10 6 10 6 6 13 10 16 16 19 16 19 19
0 0 0 0 0 0 0 0 0 0 0 0 0 0 0 0 0 0 0 0 0 0 0 0 0 0 0 0 0 0 3 3 3 6 6 0 0 0 0 0 3 3 6 10 10 10 16 13 10
0 0 0 0 0 0 0 0 0 0 0 0 0 0 0 0 0 0 0 0 0 0 0 0 0 0 0 0 0 0 0 0 0 0 0 0 0 0 0 0 0 0 0 0 0 0 3 3 3
0 0 0 0 0 0 0 0 0 0 0 0 0 0 0 0 0 0 0 0 0 0 0 0 0 0 0 0 0 0 0 0 0 0 0 0 0 0 0 0 0 0 0 0 0 0 0 0 0
0 0 0 0 0 0 0 0 0 0 0 0 0 0 0 0 0 0 0 0 0 0 0 0 0 0 0 0 0 0 0 0 0 0 0 0 0 0 0 0 0 0 0 0 0 0 0 0 0
0 0 0 0 0 0 0 0 0 0 0 0 0 0 0 0 0 0 0 0 0 0 0 0 0 0 0 0 0 0 0 0 0 0 0 0 0 0 0 0 0 0 0 0 0 0 0 0 0
0 0 0 0 0 0 0 0 0 0 0 0 0 0 0 0 0 0 0 0 0 0 0 0 0 0 0 0 0 0 0 0 0 0 0 0 0 0 0 0 0 0 0 0 0 0 0 0 0
0 0 0 0 0 0 0 0 0 0 0 0 0 0 0 0 0 0 0 0 0 0 0 0 0 0 0 0 0 0 0 0 0 0 0 0 0 0 0 0 0 0 0 0 0 0 0 0 0
0 0 0 0 0 0 0 0 0 0 0 0 0 0 0 0 0 0 0 0 0 0 0 0 0 0 0 0 0 0 0 0 0 0 0 0 0 0 0 0 0 0 0 0 0 0 0 0 0
0 0 0 0 0 0 0 0 0 0 0 0 0 0 0 0 0 0 0 0 0 0 0 0 0 0 0 0 0 0 0 0 0 0 0 0 0 0 0 0 0 0 0 0 0 0 0 0 0
0 0 0 0 0 0 0 0 0 0 0 0 0 0 0 0 0 0 0 0 0 0 0 0 0 0 0 0 0 0 0 0 0 0 0 0 0 0 0 0 0 0 0 0 0 0 0 0 0
0 0 0 0 0 0 0 0 0 0 0 0 0 0 0 0 0 0 0 0 0 0 0 0 0 0 0 0 0 0 0 0 0 0 0 0 0 0 0 0 0 0 0 0 0 0 0 0 0
0 0 0 0 0 0 0 0 0 0 0 0 0 0 0 0 0 0 0 0 0 0 0 0 0 0 0 0 0 0 0 0 0 0 0 0 0 0 0 0 0 0 0 0 0 0 0 0 0
0 0 0 0 0 0 0 0 0 0 0 0 0 0 0 0 0 0 0 0 0 0 0 0 0 0 0 0 0 0 0 0 0 0 0 0 0 0 0 0 0 0 0 0 0 0 0 0 0
0 0 0 0 0 0 0 0 0 0 0 0 0 0 0 0 0 0 0 0 0 0 0 0 0 0 0 0 0 0 0 0 0 0 0 0 0 0 0 0 0 0 0 0 0 0 0 0 0
0 0 0 0 0 0 0 0 0 0 0 0 0 0 0 0 0 0 0 0 0 0 0 0 0 0 0 0 0 0 0 0 0 0 0 0 0 0 0 0 0 0 0 0 0 0 0 0 0
0 0 0 0 0 0 0 0 0 0 0 0 0 0 0 0 0 0 0 0 0 0 0 0 0 0 0 0 0 0 0 0 0 0 0 0 0 0 0 0 0 0 0 0 0 0 0 0 0
0 0 0 0 0 0 0 0 0 0 0 0 0 0 0 0 0 0 0 0 0 0 0 0 0 0 0 0 0 0 0 0 0 0 0 0 0 0 0 0 0 0 0 0 0 0 0 0 0
0 0 0 0 0 0 0 0 0 0 0 0 0 0 0 0 0 0 0 0 0 0 0 0 0 0 0 0 0 0 0 0 0 0 0 0 0 0 0 0 0 0 0 0 0 0 0 0 0
0 0 0 0 0 0 0 0 0 0 0 0 0 0 0 0 0 0 0 0 0 0 0 0 0 0 0 0 0 0 0 0 0 0 0 0 0 0 0 0 0 0 0 0 0 0 0 0 0
0 0 0 0 0 0 0 0 0 0 0 0 0 0 0 0 0 0 0 0 0 0 0 0 0 0 0 0 0 0 0 0 0 0 0 0 0 0 0 0 0 0 0 0 0 0 0 0 0
0 0 0 0 0 0 0 0 0 0 0 0 0 0 0 0 0 0 0 0 0 0 0 0 0 0 0 0 0 0 0 0 0 0 0 0 0 0 0 0 0 0 0 0 0 0 0 0 0
0 0 0 0 0 0 0 0 0 0 0 0 0 0 0 0 0 0 0 0 0 0 0 0 0 0 0 0 0 0 0 0 0 0 0 0 0 0 0 0 0 0 0 0 0 0 0 0 0
Height
5819 5821 5823 5825 5826 5828 5829 5831 5832 5833 5834 5835 5836 5837 5838 5840 5842 5845 5845 5844 5844 5845 5846 5846 5847 5848 5849 5849 5850 5850 5851 5852 5852 5853 5853 5854 5854 5855 5855 5856 5856 5856 5857 5857 5857 5858 5858 5858 5858
5815 5817 5819 5820 5822 5823 5825 5827 5828 5829 5830 5831 5832 5834 5835 5836 5837 5839 5839 5840 5841 5842 5842 5843 5844 5844 5845 5846 5846 5847 5847 5848 5848 5849 5850 5850 5850 5851 5851 5852 5852 5853 5853 5854 5854 5854 5854 5855 5855
5811 5812 5815 5816 5817 5819 5821 5822 5823 5824 5826 5827 5828 5830 5831 5832 5833 5834 5835 5836 5837 5837 5838 5839 5840 5840 5841 5841 5842 5843 5843 5844 5844 5845 5845 5846 5846 5847 5847 5848 5848 5849 5849 5850 5850 5850 5851 5851 5851
5806 5808 5810 5812 5813 5815 5816 5818 5819 5820 5821 5823 5824 5825 5827 5828 5829 5830 5831 5832 5832 5833 5834 5834 5835 5836 5836 5837 5837 5838 5838 5839 5839 5840 5840 5841 5841 5842 5842 5843 5844 5844 5845 5845 5846 5846 5847 5847 5847
5801 5803 5804 5806 5807 5810 5811 5813 5814 5816 5817 5818 5819 5820 5822 5823 5824 5825 5826 5827 5828 5828 5829 5829 5830 5830 5831 5832 5832 5833 5833 5833 5834 5834 5835 5835 5836 5836 5837 5838 5838 5839 5839 5840 5841 5842 5842 5842 5843
5796 5797 5799 5800 5802 5804 5806 5807 5809 5811 5812 5813 5815 5816 5817 5818 5819 5820 5821 5822 5822 5823 5823 5824 5824 5825 5825 5826 5826 5826 5827 5827 5828 5828 5829 5830 5830 5831 5831 5832 5832 5833 5834 5834 5835 5836 5837 5837 5838
5791 5792 5793 5795 5796 5798 5800 5801 5803 5805 5806 5808 5809 5811 5812 5812 5813 5814 5815 5816 5817 5817 5817 5818 5818 5819 5819 5819 5819 5820 5820 5820 5821 5821 5822 5822 5823 5824 5825 5825 5826 5827 5827 5828 5829 5830 5830 5831 5832
5785 5787 5788 5790 5791 5793 5794 5795 5797 5799 5801 5802 5804 5805 5806 5807 5807 5809 5809 5810 5811 5811 5811 5812 5812 5812 5813 5813 5813 5813 5813 5813 5813 5813 5814 5815 5815 5816 5817 5818 5819 5819 5820 5821 5822 5823 5823 5824 5825
5780 5783 5783 5785 5786 5788 5789 5790 5791 5793 5795 5796 5798 5799 5800 5801 5802 5803 5804 5804 5805 5805 5805 5805 5805 5806 5806 5806 5806 5805 5805 5805 5805 5805 5806 5806 5807 5808 5809 5810 5810 5811 5812 5813 5814 5815 5816 5817 5818
5775 5777 5778 5779 5780 5782 5783 5784 5785 5787 5789 5790 5792 5793 5794 5795 5796 5797 5797 5798 5798 5798 5798 5799 5799 5798 5798 5798 5798 5798 5797 5797 5797 5797 5797 5798 5798 5799 5800 5801 5802 5803 5803 5804 5805 5806 5808 5809 5810
5770 5771 5772 5773 5774 5776 5777 5778 5780 5781 5783 5784 5786 5787 5788 5789 5790 5791 5791 5791 5791 5791 5792 5792 5791 5791 5791 5791 5790 5790 5789 5789 5788 5789 5789 5789 5789 5790 5791 5792 5792 5793 5794 5795 5796 5797 5798 5800 5801
5765 5766 5766 5767 5769 5770 5772 5773 5774 5776 5778 5779 5780 5781 5782 5783 5784 5784 5785 5785 5785 5785 5785 5784 5784 5783 5783 5782 5782 5781 5780 5780 5779 5779 5779 5779 5780 5780 5781 5782 5783 5783 5784 5784 5786 5787 5788 5790 5791
5759 5760 5761 5762 5763 5765 5766 5768 5769 5771 5772 5773 5774 5775 5776 5777 5778 5778 5778 5778 5778 5778 5777 5777 5776 5775 5774 5774 5773 5772 5771 5770 5770 5769 5769 5769 5769 5770 5770 5771 5772 5773 5773 5774 5775 5776 5777 5779 5780
5754 5755 5756 5757 5758 5759 5761 5762 5764 5766 5766 5767 5768 5769 5770 5771 5771 5771 5771 5771 5771 5770 5770 5769 5768 5767 5766 5765 5763 5762 5761 5760 5759 5758 5758 5758 5758 5758 5759 5759 5760 5761 5761 5762 5763 5764 5765 5767 5769
5749 5750 5751 5752 5752 5754 5756 5757 5759 5760 5760 5761 5762 5763 5764 5764 5764 5764 5764 5763 5763 5762 5761 5761 5759 5758 5757 5755 5754 5752 5751 5749 5748 5747 5746 5745 5745 5745 5745 5746 5747 5747 5748 5749 5750 5751 5752 5754 5756
5744 5745 5746 5747 5747 5748 5751 5753 5753 5754 5754 5755 5756 5756 5757 5757 5757 5757 5757 5756 5755 5754 5753 5752 5751 5749 5747 5746 5744 5742 5740 5738 5736 5735 5733 5732 5731 5731 5731 5732 5733 5733 5734 5734 5735 5737 5738 5740 5742
5739 5740 5741 5742 5742 5743 5744 5746 5747 5748 5748 5749 5750 5750 5750 5750 5750 5750 5749 5748 5747 5746 5745 5743 5741 5739 5737 5735 5733 5731 5729 5726 5724 5722 5720 5719 5717 5716 5716 5717 5717 5717 5718 5719 5720 5721 5722 5724 5727
5733 5734 5735 5736 5736 5737 5738 5740 5741 5741 5742 5743 5743 5743 5743 5743 5743 5742 5741 5740 5739 5737 5735 5734 5732 5729 5727 5724 5722 5719 5716 5714 5711 5709 5707 5705 5703 5701 5701 5701 5700 5700 5701 5702 5702 5704 5705 5707 5710
5726 5727 5728 5730 5730 5731 5732 5733 5734 5734 5735 5735 5736 5736 5736 5736 5735 5734 5733 5732 5730 5728 5726 5724 5722 5719 5716 5713 5710 5707 5704 5701 5698 5695 5692 5689 5687 5686 5685 5684 5683 5683 5683 5683 5684 5685 5687 5689 5691
5719 5720 5722 5723 5723 5724 5725 5727 5727 5727 5727 5728 5728 5728 5728 5727 5727 5726 5724 5723 5721 5719 5716 5714 5711 5708 5705 5701 5698 5695 5691 5688 5684 5681 5677 5674 5671 5669 5667 5666 5665 5664 5663 5664 5664 5665 5668 5670 5672
5712 5713 5714 5715 5715 5715 5717 5719 5721 5721 5720 5720 5720 5720 5719 5719 5718 5717 5715 5713 5711 5709 5706 5703 5700 5697 5693 5690 5686 5682 5678 5675 5671 5667 5663 5658 5655 5651 5649 5647 5646 5645 5644 5644 5644 5645 5647 5651 5654
5704 5705 5706 5706 5707 5708 5709 5710 5714 5713 5712 5712 5712 5712 5711 5710 5709 5708 5706 5704 5701 5699 5696 5693 5689 5686 5682 5678 5674 5669 5665 5661 5657 5652 5647 5643 5638 5635 5632 5629 5628 5626 5626 5626 5626 5627 5628 5632 5636
5695 5696 5697 5698 5698 5699 5700 5700 5705 5705 5704 5704 5704 5703 5702 5701 5700 5698 5696 5694 5691 5688 5685 5681 5678 5674 5670 5665 5661 5656 5651 5647 5642 5637 5632 5627 5623 5619 5615 5612 5610 5609 5608 5608 5609 5609 5611 5614 5618
5686 5687 5688 5688 5689 5690 5692 5692 5693 5696 5696 5695 5695 5694 5693 5692 5690 5688 5686 5683 5680 5677 5674 5670 5666 5662 5657 5652 5647 5642 5637 5632 5627 5621 5616 5611 5607 5603 5599 5595 5593 5592 5592 5592 5593 5593 5596 5598 5602
5677 5678 5679 5678 5679 5681 5683 5682 5684 5686 5686 5685 5685 5684 5683 5682 5680 5678 5676 5673 5670 5666 5662 5658 5654 5649 5644 5639 5634 5628 5622 5616 5610 5605 5600 5595 5591 5587 5583 5579 5577 5576 5576 5576 5577 5579 5581 5583 5587
5667 5668 5670 5669 5670 5671 5671 5672 5675 5675 5675 5675 5674 5674 5673 5671 5669 5667 5665 5662 5659 5655 5651 5646 5642 5637 5632 5626 5620 5614 5608 5601 5595 5589 5584 5579 5574 5571 5567 5564 5562 5561 5561 5562 5562 5564 5567 5569 5572
5656 5658 5659 5659 5658 5659 5660 5663 5665 5664 5664 5664 5663 5663 5662 5660 5658 5656 5654 5651 5647 5643 5639 5634 5630 5625 5619 5613 5607 5600 5593 5587 5581 5574 5569 5564 5559 5555 5552 5550 5548 5547 5547 5547 5548 5549 5552 5554 5556
5646 5647 5648 5648 5647 5648 5650 5652 5654 5654 5653 5653 5652 5651 5650 5648 5646 5644 5642 5639 5635 5631 5627 5622 5617 5612 5606 5600 5593 5586 5580 5573 5567 5560 5555 5549 5545 5541 5538 5536 5534 5533 5533 5533 5533 5535 5537 5539 5542
5636 5637 5637 5637 5637 5638 5638 5644 5643 5642 5642 5641 5641 5639 5638 5636 5635 5632 5630 5626 5623 5619 5614 5610 5604 5599 5593 5586 5580 5573 5567 5561 5554 5548 5542 5536 5531 5527 5524 5522 5520 5519 5518 5518 5518 5520 5522 5524 5526
5624 5625 5626 5627 5628 5627 5628 5634 5632 5631 5630 5629 5629 5627 5626 5624 5623 5620 5617 5614 5610 5606 5602 5597 5591 5586 5579 5573 5567 5561 5555 5549 5542 5536 5530 5524 5519 5514 5511 5508 5505 5504 5503 5503 5503 5504 5506 5507 5509
Wind_Speed
23 23 23 23 24 23 23 22 22 21 21 21 21 21 20 20 20 19 18 18 18 19 19 20 20 20 21 21 22 22 22 22 22 22 23 23 23 23 23 23 22 22 22 22 21 20 20 19 19
24 24 25 25 25 24 23 22 22 22 23 23 22 22 22 21 21 20 19 19 20 20 21 22 22 22 22 22 23 24 24 25 25 25 25 25 25 25 25 25 25 24 24 23 23 23 22 21 21
26 26 26 26 26 25 23 23 23 23 24 24 23 23 23 23 22 22 21 22 22 22 23 24 24 24 24 25 25 26 26 26 27 27 28 28 28 28 27 27 27 27 26 26 25 25 24 24 22
26 27 27 27 27 25 25 25 25 25 25 25 25 24 24 24 24 24 24 24 24 25 25 25 26 26 27 27 27 28 28 28 29 29 30 30 30 30 30 30 30 29 29 29 28 27 27 26 25
27 27 28 28 28 27 27 27 27 26 26 26 26 26 25 25 25 25 25 26 26 27 27 27 28 28 29 29 29 30 30 31 31 32 32 32 32 32 32 32 32 32 31 31 30 30 30 29 28
26 27 28 28 28 28 28 28 28 28 27 27 27 27 26 27 27 27 27 27 28 28 29 29 30 30 31 31 32 33 33 34 34 34 34 35 35 35 35 35 35 34 34 34 33 33 32 31 30
24 25 26 27 27 27 28 29 29 29 29 29 28 28 28 28 28 28 29 29 29 30 30 31 31 32 32 32 33 34 35 36 36 37 37 37 37 37 37 37 37 37 36 36 36 35 35 34 33
25 25 25 25 25 26 27 28 29 29 29 29 28 28 28 29 29 29 29 29 30 30 31 32 32 32 33 34 34 35 36 36 37 38 38 39 39 39 39 39 39 39 39 39 39 38 37 37 36
24 24 24 24 24 24 26 27 28 28 28 28 28 28 28 29 29 30 30 30 30 31 32 32 33 33 34 35 35 36 37 37 38 39 39 40 40 41 41 41 41 41 41 41 41 41 40 39 39
23 23 23 24 24 24 25 26 27 27 27 27 27 27 28 29 29 29 29 30 30 31 32 32 33 34 35 35 36 37 38 39 39 40 41 41 42 42 42 43 43 43 44 44 44 43 43 42 41
21 22 23 24 24 24 24 25 26 26 25 26 26 26 26 27 27 27 28 29 30 31 31 32 34 34 36 37 38 39 40 40 41 42 42 43 44 44 45 45 45 45 46 46 46 46 46 45 44
20 21 22 22 22 23 23 24 24 24 24 25 25 25 25 25 26 26 27 28 29 31 32 33 34 35 36 37 39 40 41 42 43 44 45 45 46 46 47 47 47 47 48 49 49 49 48 48 48
20 20 21 22 22 22 22 22 23 23 24 25 25 25 25 25 26 27 28 29 29 30 31 33 34 36 37 38 39 40 42 43 44 45 46 47 48 49 49 50 49 50 51 51 51 52 52 51 51
20 20 21 21 22 22 22 22 22 22 24 24 25 25 26 26 27 28 28 29 30 31 32 34 35 36 37 38 40 41 43 44 46 47 48 49 50 51 51 51 52 52 53 53 53 53 54 54 54
20 20 21 21 22 22 23 23 23 23 24 24 25 25 26 27 27 28 29 30 31 32 33 34 35 37 38 39 41 42 43 45 46 48 49 50 52 53 53 53 53 54 55 55 55 55 55 56 56
21 21 21 21 22 22 23 22 23 23 23 24 24 25 26 27 28 28 29 30 32 33 34 35 37 38 39 41 42 43 44 46 47 49 50 51 53 54 55 56 56 56 57 58 58 58 58 58 57
22 22 22 22 23 23 23 23 23 23 23 24 24 25 26 27 28 29 30 31 32 34 35 36 38 39 41 42 43 45 46 48 49 50 51 52 54 55 56 58 59 59 60 60 61 61 61 61 60
23 24 24 23 24 24 24 24 24 25 25 25 26 26 27 28 29 30 31 32 34 35 36 37 39 41 42 43 45 46 48 49 51 52 53 54 55 56 57 59 60 61 63 63 63 64 64 63 63
26 26 26 25 26 26 25 25 25 26 26 26 26 27 28 29 30 31 32 33 34 36 37 38 40 41 43 44 46 47 48 50 51 53 54 55 56 57 58 60 61 63 64 65 66 66 66 65 65
28 28 27 27 28 27 27 27 26 27 27 27 28 28 29 29 30 32 33 33 35 36 38 39 40 42 43 45 46 47 48 49 50 51 53 55 57 58 59 60 61 62 63 64 65 66 66 66 66
29 29 29 29 29 30 29 28 27 27 28 29 29 30 30 31 32 33 34 35 36 38 39 40 41 43 44 45 46 47 49 50 51 52 54 55 57 58 58 59 59 60 61 62 62 64 65 65 65
31 31 31 31 31 31 31 31 28 28 29 30 30 31 32 33 33 34 35 37 38 39 40 41 43 44 45 46 48 49 50 51 53 54 54 55 56 56 57 57 57 57 58 59 59 60 61 63 63
33 33 33 33 33 34 33 34 31 29 30 30 31 32 33 34 35 35 37 38 39 40 42 43 45 46 47 48 50 51 52 53 54 55 55 55 55 55 55 56 56 55 55 55 56 57 57 59 59
36 36 36 36 36 36 35 36 35 32 32 32 33 34 35 35 36 37 38 39 40 42 43 45 46 47 49 50 51 53 54 55 56 55 55 54 54 54 55 55 55 55 54 54 53 53 54 55 56
37 37 37 38 38 38 37 37 37 35 34 34 35 35 36 36 37 38 39 40 41 43 45 46 47 49 50 51 52 54 55 56 56 56 54 53 53 53 54 54 53 53 53 53 53 53 53 54 55
37 37 38 39 40 40 39 39 38 38 37 36 37 37 37 37 38 39 40 41 43 44 46 47 48 50 51 52 53 55 56 56 54 53 52 51 51 52 52 52 51 51 52 52 53 53 53 54 55
39 39 39 40 42 42 41 41 39 39 39 38 38 38 39 39 40 41 42 43 44 45 47 48 49 51 52 53 54 55 55 53 52 51 51 50 50 50 49 50 49 49 51 52 53 53 53 54 55
39 39 39 39 42 43 43 41 40 40 40 40 40 40 40 41 42 43 44 44 45 46 47 49 50 51 52 53 54 54 53 52 51 51 51 50 50 48 48 48 49 50 50 52 53 53 53 54 54
40 40 41 42 43 44 44 42 41 41 41 41 41 41 42 43 44 44 45 45 46 47 48 49 50 51 52 53 53 53 52 51 50 50 50 49 49 48 48 49 49 50 51 51 52 52 53 54 55
42 41 41 42 42 44 45 43 41 42 42 42 42 43 43 44 44 45 45 46 47 48 49 50 51 51 52 53 52 51 50 49 49 49 50 50 49 49 48 48 48 49 49 49 50 50 51 52 53
Wind_Direction
239 239 239 239 239 239 240 239 239 238 238 239 240 241 242 244 245 247 249 249 250 251 252 253 253 253 253 254 254 254 256 256 256 256 257 258 258 259 260 260 260 260 262 263 263 264 263 262 262
240 240 240 241 241 241 240 241 240 240 240 240 241 242 243 245 247 248 249 250 251 251 253 254 255 256 257 257 257 257 257 257 257 258 258 259 260 260 259 260 260 261 261 262 262 262 263 265 265
240 240 241 242 242 242 241 240 240 240 242 242 243 244 245 246 248 249 250 251 253 254 254 256 257 258 259 260 260 259 259 259 259 259 259 260 261 261 261 261 261 261 261 261 262 263 263 264 266
241 241 242 243 244 243 242 242 241 242 243 244 245 245 246 248 249 251 251 253 254 256 256 258 259 261 261 262 262 262 261 260 261 261 261 261 260 261 261 261 261 261 261 261 262 263 263 262 263
243 244 244 245 245 244 244 243 243 243 243 245 246 247 248 249 251 252 254 254 256 257 258 259 260 262 263 263 263 263 263 262 261 261 262 262 261 261 260 261 261 261 260 261 261 262 263 263 262
245 246 246 247 246 246 246 245 245 244 244 245 246 247 249 251 253 254 255 256 257 258 260 261 262 263 264 264 265 264 264 263 263 262 262 262 262 262 262 261 262 261 261 261 261 262 262 263 263
246 247 247 247 247 246 246 246 245 244 245 245 247 248 250 251 253 255 256 258 259 260 262 263 264 265 265 266 266 267 266 265 265 264 263 262 262 262 262 261 261 261 261 261 261 262 263 263 263
248 248 249 248 248 247 246 246 246 246 247 248 248 249 250 251 253 256 258 259 260 262 264 265 266 266 266 267 267 267 267 267 267 266 265 264 263 262 262 261 261 261 261 261 261 262 262 262 262
249 249 249 249 248 247 246 246 246 247 247 248 249 249 250 252 254 256 258 260 262 263 265 266 267 267 267 268 268 268 268 268 268 267 266 265 264 263 262 262 261 261 261 261 261 261 261 262 263
249 249 248 248 247 247 246 246 246 246 247 248 249 250 251 253 255 257 259 261 262 264 265 266 267 267 268 268 269 269 269 268 268 267 266 266 265 264 263 262 262 262 262 262 262 261 261 261 262
250 249 247 247 247 247 246 246 246 246 246 249 250 251 252 254 256 258 260 262 263 265 265 266 267 268 268 269 269 270 269 269 268 268 267 266 266 265 264 263 263 263 262 262 262 262 262 261 261
251 248 247 246 246 246 246 245 245 246 248 249 251 253 254 256 258 260 261 264 266 267 268 269 269 269 270 270 271 271 270 270 269 268 268 267 266 265 265 264 264 264 263 262 261 261 262 262 262
249 247 247 246 246 246 245 245 246 247 248 251 253 254 256 258 259 262 264 266 268 269 270 271 271 272 272 272 272 272 272 271 270 269 268 267 266 266 264 264 264 263 263 263 262 262 262 262 262
248 247 246 246 246 246 246 247 248 249 251 253 255 256 258 260 263 265 267 269 271 271 272 273 274 275 275 275 275 274 273 273 272 270 269 268 267 266 265 263 264 264 264 264 263 263 262 262 262
247 246 246 247 248 248 249 249 250 251 253 256 259 260 262 264 266 268 270 272 274 274 275 275 277 277 277 276 276 276 275 275 274 273 272 270 269 267 265 264 265 264 264 264 263 263 262 261 261
245 246 247 249 249 249 250 250 252 254 256 258 261 263 265 267 269 271 272 274 276 276 277 278 278 278 278 278 277 278 277 277 276 275 274 273 271 269 267 266 265 265 264 264 263 262 262 262 261
246 247 249 250 251 250 251 252 253 256 258 261 263 265 267 269 271 273 275 277 278 279 279 279 280 280 281 281 281 280 280 279 279 277 275 274 272 271 269 266 266 266 265 264 263 262 262 261 261
247 248 249 251 252 252 252 253 255 258 259 262 264 266 269 272 274 275 277 278 279 281 280 281 281 282 283 283 282 281 281 281 280 279 277 276 274 272 270 268 267 267 266 265 264 263 262 261 260
249 250 251 253 254 253 253 253 256 259 261 263 265 268 271 273 275 277 278 279 281 282 282 282 283 284 284 284 284 283 283 283 282 281 279 277 276 273 272 270 269 269 267 266 265 263 262 261 260
251 253 254 255 256 255 254 255 257 260 263 265 267 270 272 275 277 278 280 281 282 283 284 284 285 286 287 286 286 286 286 285 284 283 282 280 278 277 275 273 272 271 269 267 265 263 261 260 260
253 254 256 258 259 259 259 257 258 261 264 266 269 272 274 276 278 279 281 283 284 285 286 287 287 288 289 288 288 289 289 288 287 286 284 282 280 279 278 276 273 271 270 268 265 264 263 260 259
254 255 257 259 261 261 261 261 259 262 264 267 270 272 274 276 279 281 283 284 285 286 287 288 290 290 290 290 289 289 290 290 290 289 286 284 281 280 279 277 275 273 271 269 267 265 263 261 258
254 256 258 260 262 262 263 265 263 264 266 269 271 273 275 277 279 281 283 285 287 288 289 290 292 292 292 291 291 291 292 292 291 290 287 285 282 280 279 277 275 272 271 269 268 265 263 261 258
255 257 259 260 262 263 263 266 267 267 269 270 272 274 276 278 280 282 284 286 288 289 291 292 293 293 294 294 293 293 294 293 292 291 288 285 283 281 280 278 275 271 270 269 268 265 262 260 258
255 258 260 261 261 263 265 266 269 270 271 272 274 275 277 279 281 283 286 288 289 291 292 293 293 294 295 296 296 295 295 295 294 291 289 286 283 281 280 278 275 271 269 268 267 264 261 260 258
255 257 260 263 265 265 266 267 270 271 273 274 275 277 279 281 283 285 287 288 289 291 292 293 294 296 296 297 297 297 296 296 295 292 290 288 286 282 279 277 275 272 269 268 267 265 262 261 259
254 256 258 262 264 265 266 268 270 272 274 275 277 279 280 282 283 285 287 288 290 292 293 294 295 296 297 297 297 298 298 297 295 293 290 289 287 283 280 278 276 273 270 269 267 265 263 261 260
253 255 257 260 264 266 267 269 272 273 274 276 278 280 281 282 284 286 288 290 291 292 293 294 296 296 297 298 298 299 298 297 296 294 292 291 288 284 282 281 278 275 272 270 267 265 263 262 261
253 255 258 261 263 267 269 271 272 275 277 278 280 281 282 283 285 287 289 291 292 293 294 295 296 296 297 298 298 298 297 297 296 295 294 293 289 286 284 283 280 276 274 270 267 265 265 262 260
254 256 259 261 263 266 268 271 273 275 278 279 280 281 282 284 286 288 290 291 292 293 294 296 297 297 297 298 298 298 297 297 296 296 296 293 290 287 285 283 282 279 275 271 268 266 265 263 261